Flag Weather past 2 weeks in Guatemala, Guatemala

Now
55 °F

Passing clouds.


Feels Like: 50 °F
Forecast: 53 / 63 °F
Wind: 25 mph from North

Location: Guatemala Aeropuertola Aurora

Current Time: Nov 27, 2014 at 6:22:10 PM

Latest Report: Nov 27, 2014 at 6:00 PM


Visibility: N/A

Pressure: 30.33 "Hg

Humidity: 77%

Dew point: 48 °F

Location of GuatemalaLocation

Historic Weather in Guatemala — Graph

°F

Guatemala temperature yesterday

Maximum temperature yesterday: 70 °F (at 1:00 PM)
Minimum temperature yesterday: 57 °F (at 8:00 PM)
Average temperature yesterday: 63 °F

Past Weeks' High & Low Weather Summary

 TemperatureHumidityPressure
High81 °F (Nov 23, 1:00 PM)100% (Nov 14, 3:00 AM)30.39 "Hg (Nov 14, 3:00 AM)
Low55 °F (Nov 27, 12:00 AM)46% (Nov 14, 11:00 AM)30.12 "Hg (Nov 23, 3:00 PM)
Average65 °F79%30.29 "Hg
* Reported Nov 12 5:00 PM — Nov 27 5:00 PM, Guatemala, Weather by CustomWeather, © 2014

Note: Actual official high and low records may vary slightly from our data, if they occured in-between our weather recording intervals... More about our weather records

Advertising

Guatemala weather history for previous 24 hours

 ConditionsComfort  
Time TempWeatherWind HumidityBarometerVisibility
5:00 PM
Nov 27
59 °FScattered clouds.16 mph68%30.30 "HgN/A
4:00 PM61 °FRefreshingly cool.N/A55%30.30 "HgN/A
3:00 PM63 °FPassing clouds.18 mph52%30.30 "HgN/A
2:00 PM64 °FScattered clouds.18 mph52%30.30 "HgN/A
1:00 PM66 °FPassing clouds.18 mph56%30.33 "HgN/A
12:00 PM64 °FScattered clouds.18 mph60%30.36 "HgN/A
11:00 AM64 °FScattered clouds.16 mph60%30.36 "HgN/A
10:00 AM61 °FScattered clouds.16 mph72%30.39 "HgN/A
9:00 AM61 °FPassing clouds.18 mph68%30.39 "HgN/A
8:00 AM57 °FPassing clouds.18 mph72%30.39 "HgN/A
7:00 AM55 °FPartly sunny.21 mph82%30.36 "HgN/A
6:00 AM55 °FPassing clouds.21 mph82%30.33 "HgN/A
5:00 AM55 °FPassing clouds.21 mph82%30.30 "HgN/A
4:00 AM55 °FPassing clouds.21 mph82%30.30 "HgN/A
3:00 AM55 °FPassing clouds.18 mph82%30.30 "HgN/A
2:00 AM55 °FPassing clouds.18 mph82%30.33 "HgN/A
1:00 AM55 °FPassing clouds.18 mph82%30.33 "HgN/A
12:00 AM55 °FPassing clouds.21 mph82%30.36 "HgN/A
11:00 PM
Nov 26
57 °FPassing clouds.23 mph77%30.36 "HgN/A
10:00 PM57 °FPassing clouds.23 mph82%30.39 "HgN/A
9:00 PM57 °FPassing clouds.23 mph82%30.36 "HgN/A
8:00 PM57 °FPassing clouds.28 mph77%30.36 "HgN/A
7:00 PM59 °FPassing clouds.25 mph72%30.33 "HgN/A
6:00 PM59 °FPartly cloudy.23 mph77%30.30 "HgN/A
Weather by CustomWeather, © 2014

See weather overviewHow to use our weather pages